Miscellaneous Local Product
Issued by NWS Hastings, NE

Home | Current Version | Previous Version | Graphics & Text | Print | Product List | Glossary On
Versions: 1 2 3 4 5 6 7 8 9 10 11 12 13 14 15 16 17 18 19 20 21 22 23 24 25 26 27 28 29 30 31 32 33 34 35 36 37 38 39 40 41 42 43 44 45 46 47 48 49 50
000
AXUS43 KGID 242202
MISGRI

GID CWA HOURLY WEATHER ROUNDUP
NATIONAL WEATHER SERVICE HASTINGS NE
500 PM CDT SUN MAY 24 2015

NOTE: "FAIR" INDICATES FEW OR NO CLOUDS BELOW 12,000 FEET WITH NO
SIGNIFICANT WEATHER AND/OR OBSTRUCTIONS TO VISIBILITY.

...SOUTH CENTRAL NEBRASKA...

CITY           SKY/WX    TMP DP  RH WIND       PRES   REMARKS
GRAND ISLAND   CLOUDY    66  58  75 SW6       29.82F
HASTINGS       CLOUDY    64  57  78 S5        29.82F
KEARNEY        CLOUDY    64  57  77 S3        29.82F
ORD            CLOUDY    66  56  70 CALM      29.80F
YORK           CLOUDY    66  61  82 W8        29.82S
AURORA         CLOUDY    66  60  81 W10       29.82S
LEXINGTON      CLOUDY    65  60  83 S3        29.81F
HOLDREGE       CLOUDY    64  56  76 S5        29.82S
HEBRON         CLOUDY    67  57  69 S5        29.83S

...NEBRASKA PANHANDLE...

CITY           SKY/WX    TMP DP  RH WIND       PRES   REMARKS
CHADRON        PTSUNNY   66  56  70 NE16G22   29.80F
ALLIANCE       MOSUNNY   69  50  50 SE12      29.78F
SCOTTSBLUFF    MOSUNNY   68  46  45 VRB3      29.79F
SIDNEY           N/A     64  49  57 E5        29.81F

...WESTERN AND NORTH CENTRAL NEBRASKA...

CITY           SKY/WX    TMP DP  RH WIND       PRES   REMARKS
VALENTINE      PTSUNNY   65  57  75 E13       29.82S
AINSWORTH      CLOUDY    64  59  83 E7        29.82F
ONEILL         CLOUDY    62  59  90 CALM      29.83F
BROKEN BOW     CLOUDY    68  59  73 VRB7      29.81F
IMPERIAL       MOSUNNY   71  51  49 SE8       29.76F
NORTH PLATTE   MOSUNNY   69  56  62 E10       29.79F
MCCOOK         PTSUNNY   70  57  63 E13       29.78F

...EASTERN NEBRASKA...

CITY           SKY/WX    TMP DP  RH WIND       PRES   REMARKS
NORFOLK        CLOUDY    66  58  75 CALM      29.80F
SO SIOUX CITY  CLOUDY    65  60  84 SW6       29.80S
TEKAMAH        CLOUDY    68  61  78 SW5       29.79F
COLUMBUS       CLOUDY    66  55  68 W3        29.84S
ALBION         CLOUDY    64  58  82 CALM      29.81F
OMAHA EPPLEY   CLOUDY    69  61  75 SW8       29.79F
OFFUTT AFB     CLOUDY    70  62  76 SW6       29.79S
MILLARD        CLOUDY    69  62  77 W3        29.79F
LINCOLN        CLOUDY    69  61  75 S6        29.81S
NEBRASKA CITY  CLOUDY    69  61  74 SW12      29.81S
BEATRICE       CLOUDY    67  61  80 SW9       29.83S
FALLS CITY     LGT RAIN  68  63  84 SW10      29.83R

...NORTHERN KANSAS...

CITY           SKY/WX    TMP DP  RH WIND       PRES   REMARKS
GOODLAND       MOSUNNY   70  54  56 SE14      29.77F
HILL CITY      CLOUDY    68  58  70 SE8       29.80F
NORTON         MOCLDY    68  54  60 E10       29.79S
PHILLIPSBURG   CLOUDY    70  61  73 E8        29.81F HAZE
SMITH CENTER   CLOUDY    66  61  82 SE3       29.82S
HAYS           CLOUDY    66  55  68 S7        29.82S
RUSSELL        CLOUDY    68  60  75 S12       29.81S
CONCORDIA      CLOUDY    67  60  78 S13       29.83F
SALINA         CLOUDY    70  60  70 S10       29.83F
TOPEKA         CLOUDY    69  63  81 S10       29.85F



USA.gov is the U.S. government's official web portal to all federal, state and local government web resources and services.